Location: Bielefeld
(52.0356°N, 8.5226°E)
Time: 11:09:28
(UTC+01:00)

ISS - Visible Passes

Search period start: 07 February 2026 00:00
Search period end: 17 February 2026 00:00
Orbit: 414 x 429 km, 51.6° (Epoch: 6 February)

Date Brightness Start Highest point End Pass type
(mag) Time Alt. Az. Time Alt. Az. Time Alt. Az.
11 Feb -0.7 07:08:03 10° S 07:09:51 14° SE 07:11:40 10° ESE visible
14 Feb -1.3 06:22:45 10° SSW 06:25:17 20° SE 06:27:49 10° E visible
15 Feb -1.0 05:36:28 10° S 05:38:22 14° SE 05:40:15 10° ESE visible
16 Feb -2.5 06:24:27 10° SW 06:27:34 37° SSE 06:30:43 10° E visible
